Total_Precipitation_Accumulation
2.24 2.47 2.42 2.25 2.34 2.47 2.70 2.91 3.06 2.81 2.61 2.43 2.10 1.87 1.92 2.11 2.34 2.09 2.07 2.01 1.78 1.73 1.64 1.53 1.44 1.48 1.66 1.90 2.10 2.28 2.56 2.77 2.99 3.18 3.32 3.52 3.78 4.11
2.29 2.49 2.43 2.32 2.40 2.47 2.66 2.95 3.26 3.22 2.76 2.25 2.07 1.97 2.15 2.14 2.33 2.04 1.96 2.05 1.83 1.65 1.53 1.48 1.43 1.42 1.45 1.62 1.84 2.03 2.17 2.30 2.48 2.66 2.82 2.96 3.08 3.34
2.18 2.33 2.38 2.50 2.57 2.56 2.69 2.84 3.13 3.38 2.99 2.39 2.28 2.28 2.44 2.41 2.29 2.05 1.83 1.76 1.61 1.58 1.44 1.35 1.31 1.35 1.41 1.48 1.64 1.83 1.92 2.01 2.19 2.36 2.54 2.70 2.76 2.91
2.18 2.33 2.23 2.42 2.60 2.55 2.66 2.67 2.81 3.17 3.01 2.70 2.64 2.59 2.58 2.47 2.45 2.29 1.97 1.77 1.70 1.71 1.49 1.38 1.33 1.31 1.34 1.37 1.49 1.68 1.82 1.90 1.95 1.99 2.07 2.21 2.39 2.58
2.19 2.19 2.15 2.36 2.38 2.48 2.60 2.58 2.59 2.74 2.95 2.85 2.78 2.86 2.80 2.68 2.63 2.45 2.25 2.20 1.86 1.76 1.68 1.59 1.56 1.54 1.51 1.49 1.50 1.57 1.68 1.82 1.93 2.02 2.08 2.15 2.22 2.31
2.20 2.15 2.10 2.13 2.20 2.32 2.41 2.51 2.58 2.72 2.87 2.89 2.92 3.04 3.00 3.03 3.04 2.82 2.67 2.58 2.23 1.83 1.86 1.74 1.69 1.59 1.49 1.42 1.41 1.47 1.59 1.79 1.96 2.03 2.07 2.13 2.19 2.20
2.21 2.10 1.96 1.99 2.08 2.13 2.05 2.20 2.36 2.50 2.55 2.64 2.74 2.96 3.01 3.11 3.10 2.96 2.83 2.85 2.66 2.19 2.01 1.88 1.82 1.71 1.67 1.62 1.52 1.46 1.48 1.60 1.80 1.94 1.99 2.04 2.12 2.14
2.21 2.14 2.00 1.91 1.89 1.84 1.73 1.76 1.88 2.03 2.22 2.47 2.56 2.76 2.96 3.12 3.34 3.37 3.21 3.03 2.87 2.59 2.49 2.33 2.07 1.98 1.79 1.62 1.61 1.43 1.30 1.33 1.42 1.56 1.69 1.84 1.95 2.11
2.11 2.10 1.85 1.70 1.82 1.73 1.73 1.70 1.70 1.83 1.96 2.22 2.40 2.51 2.76 2.98 3.26 3.37 3.38 3.27 3.09 2.93 2.79 2.66 2.33 2.09 1.85 1.72 1.68 1.41 1.25 1.19 1.18 1.22 1.30 1.44 1.57 1.72
1.97 2.01 1.96 1.90 1.90 1.95 1.85 1.71 1.60 1.69 1.80 1.76 1.81 1.99 2.28 2.69 2.91 2.96 3.15 3.18 3.04 2.86 2.79 2.73 2.45 2.22 1.98 1.87 1.81 1.51 1.35 1.27 1.24 1.17 1.14 1.20 1.32 1.44
1.85 1.85 1.85 1.80 1.91 1.81 1.71 1.65 1.62 1.64 1.64 1.62 1.56 1.61 1.77 2.03 2.41 2.59 2.69 2.66 2.53 2.28 2.19 2.25 2.19 2.18 2.10 1.97 1.80 1.69 1.49 1.33 1.24 1.24 1.20 1.19 1.25 1.34
1.86 1.80 1.73 1.61 1.62 1.58 1.55 1.64 1.60 1.60 1.69 1.62 1.50 1.42 1.38 1.55 1.91 2.10 2.21 2.28 2.16 2.08 1.82 1.81 1.83 1.93 2.02 1.83 1.69 1.66 1.62 1.58 1.46 1.31 1.25 1.24 1.35 1.30
1.77 1.76 1.69 1.69 1.49 1.43 1.41 1.42 1.44 1.47 1.60 1.63 1.58 1.51 1.50 1.52 1.61 1.82 2.04 2.18 2.15 1.92 1.79 1.84 1.82 1.86 1.88 1.77 1.67 1.61 1.63 1.70 1.67 1.62 1.56 1.56 1.60 1.53
1.73 1.69 1.70 1.63 1.43 1.37 1.29 1.26 1.31 1.28 1.29 1.40 1.40 1.34 1.34 1.37 1.47 1.66 1.88 2.04 2.11 1.94 1.88 1.94 1.92 1.89 1.88 1.71 1.55 1.46 1.47 1.62 1.78 1.89 1.88 1.96 1.95 2.00
1.64 1.69 1.63 1.50 1.30 1.14 1.15 1.15 1.09 1.04 1.14 1.23 1.24 1.17 1.16 1.22 1.34 1.53 1.72 1.90 1.92 1.82 1.71 1.81 1.90 1.91 1.90 1.73 1.52 1.44 1.44 1.48 1.59 1.80 2.03 2.15 2.13 2.16
1.67 1.65 1.52 1.42 1.25 1.13 1.13 1.07 1.00 1.05 1.15 1.18 1.22 1.22 1.21 1.24 1.28 1.37 1.53 1.69 1.78 1.67 1.61 1.68 1.85 2.04 1.97 1.77 1.71 1.55 1.51 1.50 1.45 1.61 1.94 2.22 2.41 2.49
1.93 1.80 1.64 1.52 1.36 1.24 1.21 1.24 1.27 1.32 1.29 1.28 1.35 1.40 1.37 1.30 1.27 1.34 1.56 1.66 1.65 1.58 1.62 1.71 1.81 2.02 2.04 1.91 1.83 1.65 1.62 1.55 1.48 1.61 1.85 2.01 2.18 2.38
1.81 1.67 1.64 1.58 1.48 1.44 1.46 1.48 1.48 1.49 1.44 1.46 1.48 1.51 1.50 1.41 1.34 1.38 1.52 1.61 1.60 1.56 1.57 1.64 1.88 2.13 2.17 1.92 1.59 1.54 1.56 1.54 1.55 1.74 1.88 1.87 1.91 2.00
1.75 1.71 1.69 1.66 1.57 1.54 1.57 1.56 1.51 1.51 1.56 1.56 1.56 1.57 1.64 1.67 1.66 1.61 1.62 1.71 1.73 1.69 1.62 1.68 1.86 2.04 2.02 1.74 1.47 1.34 1.50 1.62 1.75 1.84 1.93 1.88 1.79 1.83
1.59 1.64 1.64 1.65 1.66 1.65 1.64 1.63 1.60 1.62 1.62 1.62 1.68 1.72 1.81 1.87 1.91 1.86 1.80 1.80 1.84 1.88 1.88 1.84 1.83 1.88 1.96 1.90 1.74 1.61 1.53 1.68 1.85 1.92 1.90 1.91 1.87 1.87
1.53 1.53 1.53 1.54 1.58 1.61 1.59 1.59 1.59 1.62 1.65 1.70 1.73 1.76 1.84 1.87 1.84 1.81 1.83 1.91 1.94 2.02 1.96 1.75 1.69 1.86 2.07 2.26 2.06 1.73 1.63 1.64 1.73 1.82 1.89 1.98 1.98 1.98
1.47 1.44 1.46 1.48 1.53 1.59 1.63 1.64 1.65 1.68 1.74 1.83 1.83 1.84 1.89 1.89 1.83 1.84 1.92 1.98 1.94 1.94 1.94 1.90 2.01 2.14 2.20 2.21 1.97 1.78 1.79 1.85 1.88 1.90 1.91 1.84 1.79 1.74
1.48 1.46 1.44 1.39 1.40 1.46 1.50 1.54 1.59 1.66 1.70 1.77 1.83 1.87 1.92 1.91 1.87 1.92 1.99 2.05 2.08 2.09 2.19 2.24 2.24 2.21 2.10 2.05 2.02 1.92 1.88 2.01 2.10 2.09 1.99 1.81 1.50 1.27